Starlink 31478

operational
NORAD ID: 59188 Int'l Des: 2024-045 Owner: SPXS Country: US Constellation: starlink
LEOCIRCULAR

About Starlink 31478

Description loading...

Live Position

Loading 3D Globe...

Upcoming Passes

Altitude History

Altitude vs Time

uPlot chart will show altitude changes over time

Two-Line Element Set

1 59188U 24045L 25296.32370738 .00004857 00000-0 18589-3 0 9991
2 59188 43.0017 148.2573 0001607 266.1724 93.8944 15.27581300 92156
Epoch: Oct 23, 2025 • Age: 18 hours

Current Status

Altitude 492.4 km
Velocity 7.62 km/s
Sub-Earth Point -35.73°S, 49.75°W
Launch Date Mar 11, 2024
Age 1.6 years
Type internet

Technical Details

Classification Payload
Mass 730.00 kg
Dry Mass 700.00 kg
Total Mass 730.00 kg
Length 0.30 m
Diameter 4.10 m
Span 29.00 m
Shape Box + pan
Manufacturer SPXS
Bus Type Starlink V2M
Phase Status In Orbit
Owner/State SPXS/US

Large Constellations

Loading constellations...